Location: Unspecified
(0.0000°N, 0.0000°E)
Time: 23:34:48
(UTC+00:00)

Vanguard 3 - Visible Passes

Search period start: 29 July 2016 00:00
Search period end: 08 August 2016 00:00
Orbit: 509 x 3266 km, 33.4° (Epoch: 28 July)

Date Brightness Start Highest point End Pass type
(mag) Time Alt. Az. Time Alt. Az. Time Alt. Az.
29 Jul 10.9 01:18:42 10° NNW 01:35:23 32° NNE 01:49:34 10° E visible
29 Jul 9.7 03:34:41 10° NW 03:53:54 69° NE 04:06:07 10° ESE visible
29 Jul 10.8 19:27:42 10° WNW 19:34:26 20° NNW 19:43:52 10° NNE visible
29 Jul 11.4 21:46:54 10° NNW 21:54:38 15° N 22:03:39 10° NNE visible
30 Jul 11.2 00:03:14 10° NNW 00:17:14 24° NNE 00:31:06 10° ENE visible
30 Jul 10.3 02:18:19 10° NW 02:37:20 50° NNE 02:51:28 10° ESE visible
30 Jul 9.3 04:35:40 10° WNW 04:53:55 73° SW 05:04:52 10° SE visible
30 Jul 11.2 20:30:44 10° NNW 20:36:44 14° N 20:44:05 10° NNE visible
30 Jul 11.3 22:48:08 10° NNW 22:58:39 18° NNE 23:10:18 10° NE visible
31 Jul 10.7 01:02:38 10° NNW 01:20:00 36° NNE 01:35:14 10° E visible
31 Jul 9.6 03:18:24 10° NW 03:38:16 79° NE 03:51:25 10° ESE visible
31 Jul 9.6 05:38:21 10° WNW 05:53:12 39° SW 06:02:28 10° SSE visible
31 Jul 10.9 19:14:43 10° NW 19:20:00 15° N 19:26:51 10° NNE visible
31 Jul 11.3 21:33:18 10° NNW 21:40:10 14° N 21:48:08 10° NE visible
31 Jul 11.0 23:47:37 10° NNW 00:02:05 26° NNE 00:16:52 10° ENE visible
01 Aug 10.1 02:02:06 10° NW 02:21:41 57° NNE 02:36:49 10° ESE visible
01 Aug 9.4 04:19:37 10° WNW 04:38:17 65° SW 04:50:00 10° SE visible
01 Aug 11.2 20:18:21 10° NNW 20:22:23 12° N 20:27:01 10° NNE visible
01 Aug 11.2 22:33:12 10° NNW 22:43:51 19° NNE 22:55:43 10° ENE visible
02 Aug 10.6 00:46:39 10° NW 01:04:33 41° NNE 01:20:41 10° E visible
02 Aug 9.6 03:02:14 10° NW 03:22:28 88° NE 03:36:33 10° SE visible
02 Aug 9.8 05:22:50 10° W 05:37:44 35° SW 05:47:30 10° SSE visible
02 Aug 11.0 19:02:38 10° NNW 19:05:40 12° N 19:09:10 10° N visible
02 Aug 11.3 21:19:28 10° NNW 21:25:42 13° NNE 21:32:53 10° NE visible
02 Aug 10.9 23:32:00 10° NNW 00:00:34 13° ENE 00:02:27 10° E visible
03 Aug 10.0 01:46:00 10° NW 02:05:52 65° NE 02:21:59 10° ESE visible
03 Aug 9.6 04:10:24 26° WNW 04:22:32 58° SW 04:35:00 10° SE visible
03 Aug 11.1 22:18:07 10° NNW 22:28:57 20° NNE 22:32:50 19° NE visible
04 Aug 10.9 00:30:46 10° NW 00:58:52 29° E 01:05:55 10° E visible
04 Aug 9.6 03:03:41 72° WNW 03:06:33 83° SW 03:21:33 10° SE visible
04 Aug 10.0 05:08:30 12° W 05:22:16 32° SW 05:32:29 10° SSE visible
04 Aug 11.2 21:05:20 10° N 21:11:11 13° NNE 21:17:57 10° NE visible
04 Aug 10.9 23:16:26 10° NNW 23:51:28 - E 23:25:58 29° N visible
05 Aug 10.2 01:30:03 10° NW 01:56:13 51° ESE 02:06:57 10° ESE visible
05 Aug 9.8 04:00:59 42° W 04:06:43 51° SW 04:19:55 10° SE visible
05 Aug 11.0 22:02:57 10° NNW 22:13:55 22° NNE 22:15:02 21° NNE visible
06 Aug 11.0 00:15:01 10° NW 00:48:18 17° ESE 00:50:56 10° ESE visible
06 Aug 9.7 02:53:01 69° S 02:53:01 69° S 03:06:22 10° SE visible
06 Aug 10.2 04:57:45 19° WSW 05:06:50 29° SW 05:17:22 10° SSE visible
06 Aug 11.1 20:50:51 10° N 20:56:36 13° NNE 21:03:18 10° NE visible
06 Aug 10.8 23:00:54 10° NNW 23:08:49 29° N 23:08:49 29° N visible
07 Aug 10.6 01:44:44 34° ESE 01:44:44 34° ESE 01:51:45 10° ESE visible
07 Aug 9.9 03:49:25 45° SW 03:50:53 46° SW 04:04:42 10° SSE visible
07 Aug 10.8 21:47:45 10° NNW 21:58:18 23° NNE 21:58:18 23° NNE visible
